owner,sensor,date,latitude,longitude,vertical_datum,sea_water_temperature,qcFlag
Beacon,ioos:station:wmo:42874:2,2021-09-01T00:02:00Z,27.7999,-90.3528,30.0,30.3,11111222
Beacon,ioos:station:wmo:42874:2,2021-09-01T00:12:00Z,27.7999,-90.3528,30.0,30.2,11111222
Beacon,ioos:station:wmo:42874:2,2021-09-01T00:22:00Z,27.7999,-90.3528,30.0,30.2,11111222
Beacon,ioos:station:wmo:42874:2,2021-09-01T00:33:00Z,27.8009,-90.3521,30.0,30.3,11111222
Beacon,ioos:station:wmo:42874:2,2021-09-01T00:43:00Z,27.8009,-90.3521,30.0,30.3,11111222
Beacon,ioos:station:wmo:42874:2,2021-09-01T00:52:00Z,27.8009,-90.3521,30.0,30.3,11111222
Beacon,ioos:station:wmo:42874:2,2021-09-01T01:03:00Z,27.8020,-90.3506,30.0,30.3,11111222
Beacon,ioos:station:wmo:42874:2,2021-09-01T01:13:00Z,27.8020,-90.3506,30.0,30.3,11111222
Beacon,ioos:station:wmo:42874:2,2021-09-01T01:23:00Z,27.8020,-90.3506,30.0,30.3,11111222
Beacon,ioos:station:wmo:42874:2,2021-09-01T01:32:00Z,27.8019,-90.3505,30.0,30.3,11111222
Beacon,ioos:station:wmo:42874:2,2021-09-01T01:42:00Z,27.8018,-90.3506,30.0,30.3,11111222
Beacon,ioos:station:wmo:42874:2,2021-09-01T01:53:00Z,27.8018,-90.3507,30.0,30.3,11111222
Beacon,ioos:station:wmo:42874:2,2021-09-01T02:02:00Z,27.8017,-90.3507,30.0,30.3,11111222
Beacon,ioos:station:wmo:42874:2,2021-09-01T02:12:00Z,27.8017,-90.3507,30.0,30.2,11111222
Beacon,ioos:station:wmo:42874:2,2021-09-01T02:22:00Z,27.8017,-90.3507,30.0,30.2,11111222
Beacon,ioos:station:wmo:42874:2,2021-09-01T02:33:00Z,27.8028,-90.3497,30.0,30.2,11111222
Beacon,ioos:station:wmo:42874:2,2021-09-01T02:43:00Z,27.8041,-90.3481,30.0,30.2,11111222
Beacon,ioos:station:wmo:42874:2,2021-09-01T02:52:00Z,27.8050,-90.3468,30.0,30.2,11111222
Beacon,ioos:station:wmo:42874:2,2021-09-01T03:03:00Z,27.8062,-90.3456,30.0,30.2,11111222
Beacon,ioos:station:wmo:42874:2,2021-09-01T03:12:00Z,27.8081,-90.3434,30.0,30.2,11111222
Beacon,ioos:station:wmo:42874:2,2021-09-01T03:23:00Z,27.8100,-90.3412,30.0,30.1,11111222
Beacon,ioos:station:wmo:42874:2,2021-09-01T03:33:00Z,27.8118,-90.3390,30.0,30.1,11111222
Beacon,ioos:station:wmo:42874:2,2021-09-01T03:43:00Z,27.8140,-90.3365,30.0,30.1,11111222
Beacon,ioos:station:wmo:42874:2,2021-09-01T03:52:00Z,27.8164,-90.3339,30.0,30.1,11111222
Beacon,ioos:station:wmo:42874:2,2021-09-01T04:03:00Z,27.8184,-90.3317,30.0,30.1,11111222
Beacon,ioos:station:wmo:42874:2,2021-09-01T04:12:00Z,27.8202,-90.3294,30.0,30.1,11111222
Beacon,ioos:station:wmo:42874:2,2021-09-01T04:22:00Z,27.8202,-90.3294,30.0,30.1,11111222
Beacon,ioos:station:wmo:42874:2,2021-09-01T04:33:00Z,27.8241,-90.3253,30.0,30.0,11111222
Beacon,ioos:station:wmo:42874:2,2021-09-01T04:43:00Z,27.8258,-90.3230,30.0,30.0,11111222
Beacon,ioos:station:wmo:42874:2,2021-09-01T04:53:00Z,27.8280,-90.3214,30.0,30.0,11111222
Beacon,ioos:station:wmo:42874:2,2021-09-01T05:03:00Z,27.8301,-90.3194,30.0,30.0,11111222
Beacon,ioos:station:wmo:42874:2,2021-09-01T05:14:00Z,27.8313,-90.3174,30.0,29.9,11111222
Beacon,ioos:station:wmo:42874:2,2021-09-01T05:23:00Z,27.8327,-90.3158,30.0,29.9,11111222
Beacon,ioos:station:wmo:42874:2,2021-09-01T05:32:00Z,27.8327,-90.3158,30.0,29.9,11111222
Beacon,ioos:station:wmo:42874:2,2021-09-01T05:42:00Z,27.8352,-90.3125,30.0,29.9,11111222
Beacon,ioos:station:wmo:42874:2,2021-09-01T05:52:00Z,27.8365,-90.3108,30.0,29.9,11111222
Beacon,ioos:station:wmo:42874:2,2021-09-01T06:03:00Z,27.8365,-90.3108,30.0,29.9,11111222
Beacon,ioos:station:wmo:42874:2,2021-09-01T06:12:00Z,27.8394,-90.3076,30.0,29.9,11111222
Beacon,ioos:station:wmo:42874:2,2021-09-01T06:22:00Z,27.8394,-90.3076,30.0,29.8,11111222
Beacon,ioos:station:wmo:42874:2,2021-09-01T06:32:00Z,27.8394,-90.3076,30.0,29.8,11111222
Beacon,ioos:station:wmo:42874:2,2021-09-01T06:42:00Z,27.8434,-90.3029,30.0,29.8,11111222
Beacon,ioos:station:wmo:42874:2,2021-09-01T06:52:00Z,27.8450,-90.3012,30.0,29.8,11111222
Beacon,ioos:station:wmo:42874:2,2021-09-01T07:02:00Z,27.8469,-90.2986,30.0,29.8,11111222
Beacon,ioos:station:wmo:42874:2,2021-09-01T07:12:00Z,27.8485,-90.2968,30.0,29.8,11111222
Beacon,ioos:station:wmo:42874:2,2021-09-01T07:23:00Z,27.8485,-90.2968,30.0,29.8,11111222
Beacon,ioos:station:wmo:42874:2,2021-09-01T07:34:00Z,27.8485,-90.2968,30.0,29.8,11111222
Beacon,ioos:station:wmo:42874:2,2021-09-01T07:43:00Z,27.8526,-90.2919,30.0,29.8,11111222
Beacon,ioos:station:wmo:42874:2,2021-09-01T07:53:00Z,27.8538,-90.2906,30.0,29.8,11111222
Beacon,ioos:station:wmo:42874:2,2021-09-01T08:03:00Z,27.8547,-90.2895,30.0,29.7,11111222
Beacon,ioos:station:wmo:42874:2,2021-09-01T08:12:00Z,27.8547,-90.2895,30.0,29.7,11111222
Beacon,ioos:station:wmo:42874:2,2021-09-01T08:22:00Z,27.8566,-90.2873,30.0,29.7,11111222
Beacon,ioos:station:wmo:42874:2,2021-09-01T08:33:00Z,27.8576,-90.2862,30.0,29.8,11111222
Beacon,ioos:station:wmo:42874:2,2021-09-01T08:42:00Z,27.8586,-90.2851,30.0,29.8,11111222
Beacon,ioos:station:wmo:42874:2,2021-09-01T08:53:00Z,27.8596,-90.2840,30.0,29.7,11111222
Beacon,ioos:station:wmo:42874:2,2021-09-01T09:03:00Z,27.8605,-90.2829,30.0,29.7,11111222
Beacon,ioos:station:wmo:42874:2,2021-09-01T09:12:00Z,27.8605,-90.2829,30.0,29.8,11111222
Beacon,ioos:station:wmo:42874:2,2021-09-01T09:22:00Z,27.8605,-90.2829,30.0,29.8,11111222
Beacon,ioos:station:wmo:42874:2,2021-09-01T09:32:00Z,27.8633,-90.2793,30.0,29.8,11111222
Beacon,ioos:station:wmo:42874:2,2021-09-01T09:42:00Z,27.8633,-90.2793,30.0,29.8,11111222
Beacon,ioos:station:wmo:42874:2,2021-09-01T09:52:00Z,27.8657,-90.2774,30.0,29.8,11111222
Beacon,ioos:station:wmo:42874:2,2021-09-01T10:02:00Z,27.8665,-90.2763,30.0,29.8,11111222
Beacon,ioos:station:wmo:42874:2,2021-09-01T10:12:00Z,27.8674,-90.2750,30.0,29.8,11111222
Beacon,ioos:station:wmo:42874:2,2021-09-01T10:22:00Z,27.8674,-90.2750,30.0,29.8,11111222
Beacon,ioos:station:wmo:42874:2,2021-09-01T10:32:00Z,27.8674,-90.2750,30.0,29.8,11111222
Beacon,ioos:station:wmo:42874:2,2021-09-01T10:42:00Z,27.8742,-90.2669,30.0,29.8,11111222
Beacon,ioos:station:wmo:42874:2,2021-09-01T10:53:00Z,27.8742,-90.2669,30.0,29.8,11111222
Beacon,ioos:station:wmo:42874:2,2021-09-01T11:02:00Z,27.8748,-90.2664,30.0,29.8,11111222
Beacon,ioos:station:wmo:42874:2,2021-09-01T11:12:00Z,27.8764,-90.2644,30.0,29.8,11111222
Beacon,ioos:station:wmo:42874:2,2021-09-01T11:22:00Z,27.8764,-90.2644,30.0,29.8,11111222
Beacon,ioos:station:wmo:42874:2,2021-09-01T11:32:00Z,27.8764,-90.2645,30.0,29.8,11111222
Beacon,ioos:station:wmo:42874:2,2021-09-01T11:42:00Z,27.8764,-90.2645,30.0,29.8,11111222
Beacon,ioos:station:wmo:42874:2,2021-09-01T11:52:00Z,27.8797,-90.2606,30.0,29.8,11111222
Beacon,ioos:station:wmo:42874:2,2021-09-01T12:02:00Z,27.8797,-90.2606,30.0,29.8,11111222
Beacon,ioos:station:wmo:42874:2,2021-09-01T12:12:00Z,27.8832,-90.2566,30.0,29.8,11111222
Beacon,ioos:station:wmo:42874:2,2021-09-01T12:23:00Z,27.8840,-90.2554,30.0,29.8,11111222
Beacon,ioos:station:wmo:42874:2,2021-09-01T12:32:00Z,27.8849,-90.2545,30.0,29.8,11111222
Beacon,ioos:station:wmo:42874:2,2021-09-01T12:42:00Z,27.8855,-90.2539,30.0,29.8,11111222
Beacon,ioos:station:wmo:42874:2,2021-09-01T12:51:00Z,27.8865,-90.2529,30.0,29.8,11111222
Beacon,ioos:station:wmo:42874:2,2021-09-01T13:02:00Z,27.8865,-90.2529,30.0,29.8,11111222
Beacon,ioos:station:wmo:42874:2,2021-09-01T13:13:00Z,27.8886,-90.2504,30.0,29.8,11111222
Beacon,ioos:station:wmo:42874:2,2021-09-01T13:22:00Z,27.8886,-90.2504,30.0,29.9,11111222
Beacon,ioos:station:wmo:42874:2,2021-09-01T13:32:00Z,27.8886,-90.2504,30.0,29.8,11111222
Beacon,ioos:station:wmo:42874:2,2021-09-01T13:43:00Z,27.8886,-90.2504,30.0,29.8,11111222
Beacon,ioos:station:wmo:42874:2,2021-09-01T13:52:00Z,27.8886,-90.2504,30.0,29.9,11111222
Beacon,ioos:station:wmo:42874:2,2021-09-01T14:02:00Z,27.8886,-90.2504,30.0,29.9,11111222
Beacon,ioos:station:wmo:42874:2,2021-09-01T14:12:00Z,27.8921,-90.2461,30.0,29.9,11111222
Beacon,ioos:station:wmo:42874:2,2021-09-01T14:22:00Z,27.8921,-90.2461,30.0,29.9,11111222
Beacon,ioos:station:wmo:42874:2,2021-09-01T14:33:00Z,27.8932,-90.2447,30.0,29.9,11111222
Beacon,ioos:station:wmo:42874:2,2021-09-01T14:43:00Z,27.8932,-90.2447,30.0,29.9,11111222
Beacon,ioos:station:wmo:42874:2,2021-09-01T14:52:00Z,27.8932,-90.2447,30.0,29.9,11111222
Beacon,ioos:station:wmo:42874:2,2021-09-01T15:03:00Z,27.8932,-90.2447,30.0,30.0,11111222
Beacon,ioos:station:wmo:42874:2,2021-09-01T15:12:00Z,27.8956,-90.2420,30.0,30.0,11111222
Beacon,ioos:station:wmo:42874:2,2021-09-01T15:23:00Z,27.8961,-90.2414,30.0,30.1,11111222
Beacon,ioos:station:wmo:42874:2,2021-09-01T15:32:00Z,27.8967,-90.2407,30.0,30.1,11111222
Beacon,ioos:station:wmo:42874:2,2021-09-01T15:43:00Z,27.8967,-90.2407,30.0,30.1,11111222
Beacon,ioos:station:wmo:42874:2,2021-09-01T15:53:00Z,27.8967,-90.2407,30.0,30.1,11111222
Beacon,ioos:station:wmo:42874:2,2021-09-01T16:03:00Z,27.8984,-90.2386,30.0,30.1,11111222
Beacon,ioos:station:wmo:42874:2,2021-09-01T16:12:00Z,27.8984,-90.2386,30.0,30.1,11111222
Beacon,ioos:station:wmo:42874:2,2021-09-01T16:22:00Z,27.8995,-90.2373,30.0,30.1,11111222
Beacon,ioos:station:wmo:42874:2,2021-09-01T16:33:00Z,27.9003,-90.2365,30.0,30.1,11111222
Beacon,ioos:station:wmo:42874:2,2021-09-01T16:43:00Z,27.9008,-90.2358,30.0,30.1,11111222
Beacon,ioos:station:wmo:42874:2,2021-09-01T16:52:00Z,27.9008,-90.2358,30.0,30.1,11111222
Beacon,ioos:station:wmo:42874:2,2021-09-01T17:03:00Z,27.9008,-90.2358,30.0,30.2,11111222
Beacon,ioos:station:wmo:42874:2,2021-09-01T17:13:00Z,27.9008,-90.2358,30.0,30.2,11111222
Beacon,ioos:station:wmo:42874:2,2021-09-01T17:22:00Z,27.9030,-90.2331,30.0,30.1,11111222
Beacon,ioos:station:wmo:42874:2,2021-09-01T17:32:00Z,27.9039,-90.2324,30.0,30.2,11111222
Beacon,ioos:station:wmo:42874:2,2021-09-01T17:42:00Z,27.9044,-90.2317,30.0,30.2,11111222
Beacon,ioos:station:wmo:42874:2,2021-09-01T17:54:00Z,27.9044,-90.2317,30.0,30.2,11111222
Beacon,ioos:station:wmo:42874:2,2021-09-01T18:02:00Z,27.9044,-90.2317,30.0,30.2,11111222
Beacon,ioos:station:wmo:42874:2,2021-09-01T18:12:00Z,27.9044,-90.2317,30.0,30.2,11111222
Beacon,ioos:station:wmo:42874:2,2021-09-01T18:22:00Z,27.9095,-90.2265,30.0,30.2,11111222
Beacon,ioos:station:wmo:42874:2,2021-09-01T18:32:00Z,27.9095,-90.2265,30.0,30.3,11111222
Beacon,ioos:station:wmo:42874:2,2021-09-01T18:42:00Z,27.9130,-90.2226,30.0,30.3,11111222
Beacon,ioos:station:wmo:42874:2,2021-09-01T18:53:00Z,27.9133,-90.2218,30.0,30.3,11111222
Beacon,ioos:station:wmo:42874:2,2021-09-01T19:03:00Z,27.9133,-90.2218,30.0,30.3,11111222
Beacon,ioos:station:wmo:42874:2,2021-09-01T19:12:00Z,27.9161,-90.2182,30.0,30.4,11111222
Beacon,ioos:station:wmo:42874:2,2021-09-01T19:23:00Z,27.9161,-90.2182,30.0,30.3,11111222
Beacon,ioos:station:wmo:42874:2,2021-09-01T19:33:00Z,27.9218,-90.2117,30.0,30.3,11111222
Beacon,ioos:station:wmo:42874:2,2021-09-01T19:43:00Z,27.9247,-90.2087,30.0,30.3,11111222
Beacon,ioos:station:wmo:42874:2,2021-09-01T19:51:00Z,27.9247,-90.2087,30.0,30.3,11111222
Beacon,ioos:station:wmo:42874:2,2021-09-01T20:01:00Z,27.9306,-90.2024,30.0,30.3,11111222
Beacon,ioos:station:wmo:42874:2,2021-09-01T20:12:00Z,27.9316,-90.2009,30.0,30.3,11111222
Beacon,ioos:station:wmo:42874:2,2021-09-01T20:22:00Z,27.9316,-90.2009,30.0,30.3,11111222
Beacon,ioos:station:wmo:42874:2,2021-09-01T20:32:00Z,27.9315,-90.2007,30.0,30.3,11111222
Beacon,ioos:station:wmo:42874:2,2021-09-01T20:42:00Z,27.9315,-90.2007,30.0,30.2,11111222
Beacon,ioos:station:wmo:42874:2,2021-09-01T20:52:00Z,27.9315,-90.2007,30.0,30.2,11111222
Beacon,ioos:station:wmo:42874:2,2021-09-01T21:02:00Z,27.9315,-90.2007,30.0,30.2,11111222
Beacon,ioos:station:wmo:42874:2,2021-09-01T21:12:00Z,27.9315,-90.2007,30.0,30.2,11111222
Beacon,ioos:station:wmo:42874:2,2021-09-01T21:21:00Z,27.9315,-90.2007,30.0,30.2,11111222
Beacon,ioos:station:wmo:42874:2,2021-09-01T21:31:00Z,27.9314,-90.2007,30.0,30.2,11111222
Beacon,ioos:station:wmo:42874:2,2021-09-01T21:42:00Z,27.9314,-90.2007,30.0,30.2,11111222
Beacon,ioos:station:wmo:42874:2,2021-09-01T21:52:00Z,27.9314,-90.2007,30.0,30.2,11111222
Beacon,ioos:station:wmo:42874:2,2021-09-01T22:02:00Z,27.9314,-90.2007,30.0,30.2,11111222
Beacon,ioos:station:wmo:42874:2,2021-09-01T22:12:00Z,27.9314,-90.2007,30.0,30.2,11111222
Beacon,ioos:station:wmo:42874:2,2021-09-01T22:23:00Z,27.9314,-90.2007,30.0,30.2,11111222
Beacon,ioos:station:wmo:42874:2,2021-09-01T22:32:00Z,27.9324,-90.1997,30.0,30.2,11111222
Beacon,ioos:station:wmo:42874:2,2021-09-01T22:42:00Z,27.9324,-90.1997,30.0,30.3,11111222
Beacon,ioos:station:wmo:42874:2,2021-09-01T22:53:00Z,27.9319,-90.1998,30.0,30.3,11111222
Beacon,ioos:station:wmo:42874:2,2021-09-01T23:02:00Z,27.9319,-90.1998,30.0,30.2,11111222
Beacon,ioos:station:wmo:42874:2,2021-09-01T23:12:00Z,27.9320,-90.1997,30.0,30.2,11111222
Beacon,ioos:station:wmo:42874:2,2021-09-01T23:22:00Z,27.9321,-90.1997,30.0,30.2,11111222
Beacon,ioos:station:wmo:42874:2,2021-09-01T23:31:00Z,27.9322,-90.1997,30.0,30.2,11111222
Beacon,ioos:station:wmo:42874:2,2021-09-01T23:43:00Z,27.9322,-90.1997,30.0,30.3,11111222
Beacon,ioos:station:wmo:42874:2,2021-09-01T23:51:00Z,27.9323,-90.1997,30.0,30.3,11111222
Beacon,ioos:station:wmo:42874:2,2021-09-02T00:02:00Z,27.9324,-90.1997,30.0,30.3,11111222
Beacon,ioos:station:wmo:42874:2,2021-09-02T00:12:00Z,27.9324,-90.1997,30.0,30.3,11111222
Beacon,ioos:station:wmo:42874:2,2021-09-02T00:22:00Z,27.9324,-90.1997,30.0,30.3,11111222
Beacon,ioos:station:wmo:42874:2,2021-09-02T00:32:00Z,27.9324,-90.1997,30.0,30.3,11111222
Beacon,ioos:station:wmo:42874:2,2021-09-02T00:42:00Z,27.9324,-90.1997,30.0,30.3,11111222
Beacon,ioos:station:wmo:42874:2,2021-09-02T00:52:00Z,27.9324,-90.1997,30.0,30.3,11111222
Beacon,ioos:station:wmo:42874:2,2021-09-02T01:02:00Z,27.9324,-90.1997,30.0,30.3,11111222
Beacon,ioos:station:wmo:42874:2,2021-09-02T01:12:00Z,27.9324,-90.1997,30.0,30.2,11111222
Beacon,ioos:station:wmo:42874:2,2021-09-02T01:22:00Z,27.9324,-90.1997,30.0,30.2,11111222
Beacon,ioos:station:wmo:42874:2,2021-09-02T01:32:00Z,27.9324,-90.1996,30.0,30.2,11111222
Beacon,ioos:station:wmo:42874:2,2021-09-02T01:42:00Z,27.9324,-90.1996,30.0,30.1,11111222
Beacon,ioos:station:wmo:42874:2,2021-09-02T01:52:00Z,27.9324,-90.1996,30.0,30.1,11111222
Beacon,ioos:station:wmo:42874:2,2021-09-02T02:02:00Z,27.9324,-90.1996,30.0,30.1,11111222
Beacon,ioos:station:wmo:42874:2,2021-09-02T02:12:00Z,27.9325,-90.1996,30.0,30.1,11111222
Beacon,ioos:station:wmo:42874:2,2021-09-02T02:22:00Z,27.9326,-90.1997,30.0,30.0,11111222
Beacon,ioos:station:wmo:42874:2,2021-09-02T02:33:00Z,27.9326,-90.1996,30.0,30.0,11111222
Beacon,ioos:station:wmo:42874:2,2021-09-02T02:43:00Z,27.9326,-90.1996,30.0,30.0,11111222
Beacon,ioos:station:wmo:42874:2,2021-09-02T02:53:00Z,27.9325,-90.1996,30.0,30.0,11111222
Beacon,ioos:station:wmo:42874:2,2021-09-02T03:03:00Z,27.9326,-90.1996,30.0,30.0,11111222
Beacon,ioos:station:wmo:42874:2,2021-09-02T03:12:00Z,27.9326,-90.1996,30.0,30.0,11111222
Beacon,ioos:station:wmo:42874:2,2021-09-02T03:22:00Z,27.9326,-90.1996,30.0,30.0,11111222
Beacon,ioos:station:wmo:42874:2,2021-09-02T03:33:00Z,27.9325,-90.1996,30.0,30.0,11111222
Beacon,ioos:station:wmo:42874:2,2021-09-02T03:42:00Z,27.9324,-90.1996,30.0,30.0,11111222
Beacon,ioos:station:wmo:42874:2,2021-09-02T03:53:00Z,27.9324,-90.1996,30.0,30.0,11111222
Beacon,ioos:station:wmo:42874:2,2021-09-02T04:03:00Z,27.9324,-90.1996,30.0,30.1,11111222
Beacon,ioos:station:wmo:42874:2,2021-09-02T04:13:00Z,27.9323,-90.1997,30.0,30.1,11111222
Beacon,ioos:station:wmo:42874:2,2021-09-02T04:22:00Z,27.9323,-90.1997,30.0,30.0,11111222
Beacon,ioos:station:wmo:42874:2,2021-09-02T04:33:00Z,27.9323,-90.1997,30.0,30.1,11111222
Beacon,ioos:station:wmo:42874:2,2021-09-02T04:43:00Z,27.9323,-90.1997,30.0,30.1,11111222
Beacon,ioos:station:wmo:42874:2,2021-09-02T04:53:00Z,27.9325,-90.1998,30.0,30.1,11111222
Beacon,ioos:station:wmo:42874:2,2021-09-02T05:01:00Z,27.9327,-90.1998,30.0,30.0,11111222
Beacon,ioos:station:wmo:42874:2,2021-09-02T05:12:00Z,27.9326,-90.1998,30.0,30.1,11111222
Beacon,ioos:station:wmo:42874:2,2021-09-02T05:22:00Z,27.9326,-90.1998,30.0,30.1,11111222
Beacon,ioos:station:wmo:42874:2,2021-09-02T05:33:00Z,27.9326,-90.1998,30.0,30.1,11111222
Beacon,ioos:station:wmo:42874:2,2021-09-02T05:42:00Z,27.9324,-90.1997,30.0,30.1,11111222
Beacon,ioos:station:wmo:42874:2,2021-09-02T05:52:00Z,27.9324,-90.1997,30.0,30.1,11111222
Beacon,ioos:station:wmo:42874:2,2021-09-02T06:03:00Z,27.9324,-90.1997,30.0,30.1,11111222
Beacon,ioos:station:wmo:42874:2,2021-09-02T06:12:00Z,27.9323,-90.1997,30.0,30.2,11111222
Beacon,ioos:station:wmo:42874:2,2021-09-02T06:22:00Z,27.9323,-90.1997,30.0,30.2,11111222
Beacon,ioos:station:wmo:42874:2,2021-09-02T06:32:00Z,27.9323,-90.1997,30.0,30.2,11111222
Beacon,ioos:station:wmo:42874:2,2021-09-02T06:42:00Z,27.9323,-90.1997,30.0,30.2,11111222
Beacon,ioos:station:wmo:42874:2,2021-09-02T06:53:00Z,27.9323,-90.1997,30.0,30.2,11111222
Beacon,ioos:station:wmo:42874:2,2021-09-02T07:02:00Z,27.9323,-90.1997,30.0,30.2,11111222
Beacon,ioos:station:wmo:42874:2,2021-09-02T07:12:00Z,27.9323,-90.1997,30.0,30.1,11111222
Beacon,ioos:station:wmo:42874:2,2021-09-02T07:22:00Z,27.9323,-90.1997,30.0,30.1,11111222
Beacon,ioos:station:wmo:42874:2,2021-09-02T07:31:00Z,27.9323,-90.1997,30.0,30.1,11111222
Beacon,ioos:station:wmo:42874:2,2021-09-02T07:42:00Z,27.9324,-90.1998,30.0,30.1,11111222
Beacon,ioos:station:wmo:42874:2,2021-09-02T07:52:00Z,27.9324,-90.1998,30.0,30.1,11111222
Beacon,ioos:station:wmo:42874:2,2021-09-02T08:01:00Z,27.9323,-90.1997,30.0,30.1,11111222
Beacon,ioos:station:wmo:42874:2,2021-09-02T08:12:00Z,27.9323,-90.1997,30.0,30.1,11111222
Beacon,ioos:station:wmo:42874:2,2021-09-02T08:23:00Z,27.9323,-90.1997,30.0,30.0,11111222
Beacon,ioos:station:wmo:42874:2,2021-09-02T08:33:00Z,27.9323,-90.1997,30.0,30.0,11111222
Beacon,ioos:station:wmo:42874:2,2021-09-02T08:42:00Z,27.9323,-90.1997,30.0,30.0,11111222
Beacon,ioos:station:wmo:42874:2,2021-09-02T08:52:00Z,27.9323,-90.1997,30.0,30.0,11111222
Beacon,ioos:station:wmo:42874:2,2021-09-02T09:02:00Z,27.9323,-90.1997,30.0,30.0,11111222
Beacon,ioos:station:wmo:42874:2,2021-09-02T09:11:00Z,27.9323,-90.1997,30.0,30.0,11111222
Beacon,ioos:station:wmo:42874:2,2021-09-02T09:22:00Z,27.9323,-90.1997,30.0,30.0,11111222
Beacon,ioos:station:wmo:42874:2,2021-09-02T09:32:00Z,27.9323,-90.1997,30.0,29.9,11111222
Beacon,ioos:station:wmo:42874:2,2021-09-02T09:42:00Z,27.9323,-90.1997,30.0,29.9,11111222
Beacon,ioos:station:wmo:42874:2,2021-09-02T09:52:00Z,27.9323,-90.1997,30.0,29.9,11111222
Beacon,ioos:station:wmo:42874:2,2021-09-02T10:02:00Z,27.9323,-90.1997,30.0,29.9,11111222
Beacon,ioos:station:wmo:42874:2,2021-09-02T10:13:00Z,27.9324,-90.1998,30.0,29.9,11111222
Beacon,ioos:station:wmo:42874:2,2021-09-02T10:22:00Z,27.9324,-90.1998,30.0,29.9,11111222
Beacon,ioos:station:wmo:42874:2,2021-09-02T10:32:00Z,27.9324,-90.1998,30.0,29.9,11111222
Beacon,ioos:station:wmo:42874:2,2021-09-02T10:43:00Z,27.9324,-90.1998,30.0,29.9,11111222
Beacon,ioos:station:wmo:42874:2,2021-09-02T10:52:00Z,27.9324,-90.1998,30.0,29.9,11111222
Beacon,ioos:station:wmo:42874:2,2021-09-02T11:03:00Z,27.9324,-90.1997,30.0,29.9,11111222
Beacon,ioos:station:wmo:42874:2,2021-09-02T11:11:00Z,27.9324,-90.1997,30.0,29.8,11111222
Beacon,ioos:station:wmo:42874:2,2021-09-02T11:22:00Z,27.9324,-90.1998,30.0,29.8,11111222
Beacon,ioos:station:wmo:42874:2,2021-09-02T11:33:00Z,27.9324,-90.1998,30.0,29.8,11111222
Beacon,ioos:station:wmo:42874:2,2021-09-02T11:43:00Z,27.9324,-90.1997,30.0,29.8,11111222
Beacon,ioos:station:wmo:42874:2,2021-09-02T11:53:00Z,27.9324,-90.1997,30.0,29.8,11111222
Beacon,ioos:station:wmo:42874:2,2021-09-02T12:02:00Z,27.9324,-90.1997,30.0,29.8,11111222
Beacon,ioos:station:wmo:42874:2,2021-09-02T12:12:00Z,27.9324,-90.1997,30.0,29.8,11111222
Beacon,ioos:station:wmo:42874:2,2021-09-02T12:22:00Z,27.9323,-90.1997,30.0,29.8,11111222
Beacon,ioos:station:wmo:42874:2,2021-09-02T12:32:00Z,27.9323,-90.1997,30.0,29.8,11111222
Beacon,ioos:station:wmo:42874:2,2021-09-02T12:42:00Z,27.9323,-90.1997,30.0,29.8,11111222
Beacon,ioos:station:wmo:42874:2,2021-09-02T12:52:00Z,27.9323,-90.1997,30.0,29.8,11111222
Beacon,ioos:station:wmo:42874:2,2021-09-02T13:02:00Z,27.9324,-90.1998,30.0,29.7,11111222
Beacon,ioos:station:wmo:42874:2,2021-09-02T13:13:00Z,27.9324,-90.1998,30.0,29.7,11111222
Beacon,ioos:station:wmo:42874:2,2021-09-02T13:22:00Z,27.9323,-90.1998,30.0,29.7,11111222
Beacon,ioos:station:wmo:42874:2,2021-09-02T13:32:00Z,27.9323,-90.1998,30.0,29.7,11111222
Beacon,ioos:station:wmo:42874:2,2021-09-02T13:43:00Z,27.9323,-90.1998,30.0,29.7,11111222
Beacon,ioos:station:wmo:42874:2,2021-09-02T13:53:00Z,27.9323,-90.1998,30.0,29.7,11111222
Beacon,ioos:station:wmo:42874:2,2021-09-02T14:02:00Z,27.9324,-90.1998,30.0,29.7,11111222
Beacon,ioos:station:wmo:42874:2,2021-09-02T14:12:00Z,27.9324,-90.1997,30.0,29.7,11111222
Beacon,ioos:station:wmo:42874:2,2021-09-02T14:22:00Z,27.9324,-90.1997,30.0,29.7,11111222
Beacon,ioos:station:wmo:42874:2,2021-09-02T14:32:00Z,27.9323,-90.1997,30.0,29.7,11111222
Beacon,ioos:station:wmo:42874:2,2021-09-02T14:41:00Z,27.9324,-90.1997,30.0,29.8,11111222
Beacon,ioos:station:wmo:42874:2,2021-09-02T14:52:00Z,27.9324,-90.1997,30.0,29.8,11111222
Beacon,ioos:station:wmo:42874:2,2021-09-02T15:02:00Z,27.9324,-90.1997,30.0,29.8,11111222
Beacon,ioos:station:wmo:42874:2,2021-09-02T15:13:00Z,27.9324,-90.1997,30.0,29.8,11111222
Beacon,ioos:station:wmo:42874:2,2021-09-02T15:22:00Z,27.9324,-90.1997,30.0,29.8,11111222
Beacon,ioos:station:wmo:42874:2,2021-09-02T15:32:00Z,27.9324,-90.1997,30.0,29.8,11111222
Beacon,ioos:station:wmo:42874:2,2021-09-02T15:42:00Z,27.9324,-90.1997,30.0,29.8,11111222
Beacon,ioos:station:wmo:42874:2,2021-09-02T15:51:00Z,27.9324,-90.1997,30.0,29.9,11111222
Beacon,ioos:station:wmo:42874:2,2021-09-02T16:02:00Z,27.9324,-90.1997,30.0,29.9,11111222
Beacon,ioos:station:wmo:42874:2,2021-09-02T16:12:00Z,27.9324,-90.1997,30.0,29.9,11111222
Beacon,ioos:station:wmo:42874:2,2021-09-02T16:22:00Z,27.9324,-90.1997,30.0,29.9,11111222
Beacon,ioos:station:wmo:42874:2,2021-09-02T16:33:00Z,27.9324,-90.1998,30.0,29.9,11111222
Beacon,ioos:station:wmo:42874:2,2021-09-02T16:42:00Z,27.9326,-90.1997,30.0,30.0,11111222
Beacon,ioos:station:wmo:42874:2,2021-09-02T16:53:00Z,27.9326,-90.1997,30.0,30.0,11111222
Beacon,ioos:station:wmo:42874:2,2021-09-02T17:02:00Z,27.9326,-90.1997,30.0,30.0,11111222
Beacon,ioos:station:wmo:42874:2,2021-09-02T17:12:00Z,27.9325,-90.1997,30.0,30.1,11111222
Beacon,ioos:station:wmo:42874:2,2021-09-02T17:22:00Z,27.9325,-90.1997,30.0,30.2,11111222
Beacon,ioos:station:wmo:42874:2,2021-09-02T17:32:00Z,27.9325,-90.1997,30.0,30.2,11111222
Beacon,ioos:station:wmo:42874:2,2021-09-02T17:41:00Z,27.9325,-90.1997,30.0,30.2,11111222
Beacon,ioos:station:wmo:42874:2,2021-09-02T17:52:00Z,27.9325,-90.1997,30.0,30.2,11111222
Beacon,ioos:station:wmo:42874:2,2021-09-02T18:02:00Z,27.9325,-90.1996,30.0,30.2,11111222
Beacon,ioos:station:wmo:42874:2,2021-09-02T18:13:00Z,27.9324,-90.1996,30.0,30.2,11111222
Beacon,ioos:station:wmo:42874:2,2021-09-02T18:23:00Z,27.9324,-90.1996,30.0,30.2,11111222
Beacon,ioos:station:wmo:42874:2,2021-09-02T18:32:00Z,27.9324,-90.1996,30.0,30.2,11111222
Beacon,ioos:station:wmo:42874:2,2021-09-02T18:43:00Z,27.9325,-90.1996,30.0,30.2,11111222
Beacon,ioos:station:wmo:42874:2,2021-09-02T18:53:00Z,27.9325,-90.1996,30.0,30.2,11111222
Beacon,ioos:station:wmo:42874:2,2021-09-02T19:03:00Z,27.9325,-90.1996,30.0,30.2,11111222
Beacon,ioos:station:wmo:42874:2,2021-09-02T19:12:00Z,27.9325,-90.1996,30.0,30.2,11111222
Beacon,ioos:station:wmo:42874:2,2021-09-02T19:22:00Z,27.9325,-90.1996,30.0,30.2,11111222
Beacon,ioos:station:wmo:42874:2,2021-09-02T19:32:00Z,27.9324,-90.1996,30.0,30.2,11111222
Beacon,ioos:station:wmo:42874:2,2021-09-02T19:43:00Z,27.9324,-90.1996,30.0,30.2,11111222
Beacon,ioos:station:wmo:42874:2,2021-09-02T19:53:00Z,27.9324,-90.1996,30.0,30.3,11111222
Beacon,ioos:station:wmo:42874:2,2021-09-02T20:03:00Z,27.9328,-90.1996,30.0,30.3,11111222